Powrót do katalogu

ONEWEB-0142

AktywnyŁącznośćPO
NORAD 47288·PAYLOAD·🇬🇧 United Kingdom

Wystrzelony Dec 18, 2020 z Vostochny Cosmodrome

Loading…

Następne Przeloty (najbliższe 24 godziny)

TLE

ŚwieżeSource: CelesTrak SupGP

Epoka: Sep 14, 2026, 21:45 UTC

1 47288C 20100AG  26257.90639307 -.00000626  00000+0 -17430-2 0  2570
2 47288  87.8987 332.8555 0001471 104.3661 346.0995 13.12444671    13

Śledź ONEWEB-0142 w czasie rzeczywistym z AllMySat

Download on the App Store